044  
ASUS41 KLWX 230211  
RWRLWX  
 
REGIONAL WEATHER ROUNDUP  
NATIONAL WEATHER SERVICE BALTIMORE MD/WASHINGTON DC  
1000 PM EDT TUE AUG 22 2017  
 
NOTE: "FAIR" INDICATES FEW OR NO CLOUDS BELOW 12,000 FEET  
WITH NO SIGNIFICANT WEATHER AND/OR S TO VISIBILITY
.  
TC=TEMPERATURE CELSIUS  
 
* =NON NWS SITE. STATION DOES NOT REPORT PRECIPITATION (E.G. RAIN,  
SNOW, ETC.), THUNDER, OR FOG.
 
 
DCZ001-MDZ009-015-VAZ040>042-051-053>054-230300-  
WASHINGTON METRO  
 
CITY SKY/WX TMP DP RH WIND PRES REMARKS
 
WASHINGTON NAT MOCLDY 85 73 67 S15 29.81S HX 91  
DULLES MOCLDY 82 73 74 S15 29.82R  
ANDREWS AFB CLEAR 83 70 66 S17 29.82R  
FT BELVOIR CLEAR 83 72 67 S5 29.82R  
QUANTICO CLEAR 85 72 65 SW10 29.84R HX 91  
COLLEGE PARK* CLEAR 84 70 63 S7 29.80S  
LEESBURG* PTCLDY 82 73 74 CALM 29.84R  
MANASSAS* CLEAR 82 73 74 S8 29.83R  
 

 
 
MDZ006>007-011-014-230300-  
BALTIMORE METRO  
 
CITY SKY/WX TMP DP RH WIND PRES REMARKS
 
BWI AIRPORT PTCLDY 83 72 69 S12 29.79R  
MD SCIENCE CTR N/A 86 72 62 MISG 29.78R HX 92  
MARTIN STATE MOCLDY 84 75 74 S12G18 29.80S HX 92  
ANNAPOLIS CLEAR 86 75 69 S7 29.80S HX 95  
FORT MEADE* CLEAR 79 70 73 S7 29.83R  
 

 
 
MDZ012-015-019>023-230300-  
MARYLAND EASTERN SHORE  
 
CITY SKY/WX TMP DP RH WIND PRES REMARKS
 
OCEAN CITY PTCLDY 80 78 94 SW15 29.87F  
SALISBURY CLEAR 78 77 96 S10 29.85F  
BAY BRIDGE AP* CLEAR 84 75 74 S14G21 29.81R HX 92  
CAMBRIDGE* CLEAR 82 75 78 S8G15 29.83F  
EASTON* CLEAR 84 73 70 SW13G20 29.86F HX 91  
 

 
 
MDZ017>025-230300-  
SOUTHERN MARYLAND  
 
CITY SKY/WX TMP DP RH WIND PRES REMARKS
 
PATUXENT RIVER PTCLDY 81 75 82 S9G16 29.83F  
ST INIGOES CLEAR 83 75 77 S10G17 29.83F HX 90  
LEONARDTOWN* CLEAR 81 72 74 S8 29.86S  
 

 
 
MDZ003>005-230300-  
NORTH CENTRAL MARYLAND  
 
CITY SKY/WX TMP DP RH WIND PRES REMARKS
 
FREDERICK* CLOUDY 81 66 61 W3 29.85R  
HAGERSTOWN APT CLOUDY 78 70 76 S5 29.84R  
WESTMINSTER* CLOUDY 75 73 94 CALM 29.85R  
 

 
 
MDZ501>502-230300-  
WESTERN MARYLAND  
 
CITY SKY/WX TMP DP RH WIND PRES REMARKS
 
OAKLAND* MOCLDY 64 64 100 SW8G18 29.96S  
CUMBERLAND* CLOUDY 73 72 94 SW10 29.92R  
 

 
 
VAZ025>031-230300-  
SHENANDOAH VALLEY  
 
CITY SKY/WX TMP DP RH WIND PRES REMARKS
 
WINCHESTER* MOCLDY 75 66 73 CALM 29.84S  
FRONT ROYAL* CLOUDY 81 70 69 SW5 29.83S  
LURAY* CLOUDY 79 70 73 CALM 29.86S  
NEW MARKET* PTCLDY 77 68 73 CALM 29.85S  
STAUNTON* PTCLDY 79 69 70 S8 29.92S  
WAYNESBORO* PTCLDY 78 70 77 SW9 29.93F  
 

 
 
WVZ021-048>050-054>055-230300-  
EASTERN WEST VIRGINIA PANHANDLE  
 
CITY SKY/WX TMP DP RH WIND PRES REMARKS
 
MARTINSBURG MOCLDY 74 70 87 SE3 29.83R  
PETERSBURG* LGT RAIN 77 72 84 NW3 29.89R  
 

 
 
VAZ036>039-050-230300-  
CENTRAL FOOTHILLS  
 
CITY SKY/WX TMP DP RH WIND PRES REMARKS
 
CHARLOTTESVILL CLEAR 85 68 56 S9 29.87R  
CULPEPER* CLEAR 82 73 74 SW7 29.85S  
ORANGE* CLEAR 81 68 65 CALM 29.86S  
GORDONSVILLE* CLEAR 81 70 69 SW6 29.86R  
WARRENTON* CLEAR 82 70 66 S7 29.84R  
 

 
 
VAZ055>057-230300-  
NORTH AND CENTRAL PIEDMONT  
 
CITY SKY/WX TMP DP RH WIND PRES REMARKS
 
FREDERICKSBRG* CLEAR 82 72 70 S7 29.84R  
STAFFORD* CLEAR 82 71 69 S7 29.88R  
 

 
 
NCZ024-NYZ072-PAZ021-071-VAZ022-071-230300-  
OTHER REGIONAL OBSERVATIONS  
 
CITY SKY/WX TMP DP RH WIND PRES REMARKS
 
NEW YORK CITY PTCLDY 83 71 67 SW8 29.78F  
PHILADELPHIA MOCLDY 83 72 69 S13 29.78F  
PITTSBURGH PTCLDY 72 69 90 SW7 29.87R  
ROANOKE PTCLDY 83 68 60 SW9 29.97R  
RICHMOND PTCLDY 81 73 76 S10 29.88S  
RALEIGH PTCLDY 85 72 65 SW13 29.94S HX 91  
 

 
 
ANZ530>537-230300-  
MARINE OBSERVATIONS  
 
STATION/POSITION TIME TEMP WIND PRES
 
AIR SEA DIR/SP/G  
(UTC) (F) (DEG/KT/KT) (MB)  
THOMAS PT LIGHT 0200 83 81 190/ 20/ 22 N/A  
BALT KEY BRIDGE 0148 84 200/ 14/ 17 1008.4R  
COVE POINT 0148 83 210/ 16/ 20 1010.8F  
LEWISETTA 0148 83 85 230/ 11/ 14 1010.6F  
SOLOMONS ISLAND 0148 83 82 200/ 12/ 16 N/A  
PINEY POINT 0148 220/ 17/ 19 N/A  
 

 
 
 
 
CLICK HERE TO GO TO PREVIOUS BULLETINS.

The Nexlab VA Page
The Nexlab MD Page
The Nexlab WV Page Main Text Page